"startDT [UTC]","vpos","CH4 [ppm]","stdev(CH4) [ppm]","CO2 [ppm]","stdev(CO2) [ppm]","H2O_reported [%]","stdev(H2O_reported)","CavityPressure [torr]","CavityTemp [C]","OutletValve","CH4_dry [ppm]","CO2_dry [ppm]","DasTemp [C]","EtalonTemp [C]","WarmBoxTemp [C]","MPVPosition","T_ECpre [C]","T_EC1 [C]","T_EC2 [C]","p_inlet [hPa]","p_in [hPa]","p_out [hPa]","T_inlet [C]","RH_inlet [%]","dwpt_inlet [C]","T_vent [C]","RH_vent [%]","dwpt_vent [C]","flow_vent [l min-1]","flow_inlet [l min-1]","dwpt_sample [C]","T_room [C]"
2015-04-04 00:00:00,3.0,1.88086,0.01434,399.501,2.319,0.0272,0.0378,139.883,44.997,31215.25079,1.88317,399.784,35.124,45.066,45.000,0.00,0.09,-272.71,-272.77,10,488,-5,22.8,3.2,-24.0,23.0,3.1,-24.3,5.73,1.67,-15.1,28.6
2015-04-04 00:01:00,3.0,1.87694,0.00043,397.229,0.065,0.0053,0.0018,139.997,44.997,31132.02037,1.87703,397.259,34.932,45.066,45.000,0.00,0.09,-272.71,-272.77,9,487,-5,22.7,3.2,-24.0,23.0,3.1,-24.2,5.73,1.70,-15.2,28.5
2015-04-04 00:02:00,3.0,1.87678,0.00030,397.286,0.094,0.0068,0.0021,139.997,44.997,31103.22410,1.87693,397.314,34.783,45.067,45.000,0.00,0.09,-272.71,-272.78,10,488,-5,22.7,3.2,-24.0,23.0,3.1,-24.2,5.73,1.50,-15.2,28.6
2015-04-04 00:03:00,3.0,1.87664,0.00036,397.529,0.055,0.0056,0.0021,140.001,44.998,31080.83316,1.87675,397.552,34.631,45.067,45.000,0.00,0.09,-272.72,-272.77,8,488,-5,22.6,3.2,-23.9,22.9,3.1,-24.2,5.73,1.80,-15.2,28.4
2015-04-04 00:04:00,3.0,1.87665,0.00027,397.604,0.031,0.0055,0.0018,139.997,44.998,31060.48521,1.87673,397.631,34.499,45.066,45.000,0.00,0.09,-272.72,-272.77,10,488,-5,22.5,3.3,-23.9,22.8,3.1,-24.3,5.73,1.67,-15.2,28.3
2015-04-04 00:05:00,3.0,1.87644,0.00036,397.602,0.035,0.0038,0.0024,139.999,44.998,31046.47494,1.87654,397.620,34.397,45.066,44.999,0.00,0.09,-272.72,-272.78,10,488,-5,22.5,3.3,-23.8,22.8,3.1,-24.4,5.73,1.52,-15.2,28.2
2015-04-04 00:06:00,3.0,1.87630,0.00032,397.603,0.028,0.0036,0.0021,140.001,44.998,31037.31320,1.87637,397.621,34.325,45.066,45.000,0.00,0.09,-272.72,-272.77,9,489,-5,22.5,3.3,-23.9,22.9,3.1,-24.2,5.73,1.71,-15.2,28.3
2015-04-04 00:07:00,3.0,1.87660,0.00032,397.605,0.020,0.0022,0.0017,139.999,44.999,31026.92032,1.87662,397.616,34.312,45.067,45.000,0.00,0.09,-272.72,-272.77,10,489,-5,22.6,3.3,-23.8,22.9,3.1,-24.2,5.73,1.78,-15.2,28.3
2015-04-04 00:08:00,3.0,1.87632,0.00035,397.584,0.030,0.0017,0.0018,140.000,44.999,31022.29122,1.87636,397.593,34.295,45.067,45.000,0.00,0.09,-272.72,-272.77,10,489,-5,22.6,3.2,-23.9,22.9,3.1,-24.2,5.73,1.62,-15.2,28.2
2015-04-04 00:09:00,3.0,1.87630,0.00028,397.592,0.021,0.0007,0.0014,140.000,45.000,31019.69394,1.87631,397.596,34.286,45.067,45.000,0.00,0.09,-272.72,-272.78,9,489,-5,22.7,3.2,-23.9,22.9,3.1,-24.1,5.73,1.54,-15.2,28.2
2015-04-04 00:10:00,3.0,1.87641,0.00026,397.611,0.017,0.0009,0.0021,140.000,45.000,31014.47503,1.87644,397.615,34.300,45.068,45.001,0.00,0.09,-272.72,-272.77,9,490,-5,22.7,3.2,-23.8,23.0,3.1,-24.2,5.73,1.68,-15.2,28.3
2015-04-04 00:11:00,3.0,1.87639,0.00035,397.596,0.031,0.0004,0.0015,140.000,45.001,31014.95429,1.87639,397.598,34.312,45.068,45.001,0.00,0.09,-272.72,-272.77,10,490,-5,22.8,3.2,-23.9,23.0,3.1,-24.3,5.73,1.79,-15.2,28.4
2015-04-04 00:12:00,3.0,1.87655,0.00038,397.603,0.034,0.0015,0.0022,140.002,45.001,31012.24554,1.87655,397.609,34.359,45.068,45.000,0.00,0.09,-272.72,-272.78,9,490,-5,22.8,3.2,-24.0,23.0,3.1,-24.1,5.73,1.68,-15.3,28.4
2015-04-04 00:13:00,3.0,1.87662,0.00037,397.627,0.030,0.0007,0.0018,140.001,45.001,31010.86760,1.87662,397.632,34.391,45.067,45.000,0.00,0.09,-272.71,-272.78,9,491,-5,22.9,3.1,-24.1,23.0,3.0,-24.3,5.73,1.54,-15.3,28.4
2015-04-04 00:14:00,3.0,1.87684,0.00040,397.659,0.028,0.0011,0.0015,140.001,45.001,31008.60649,1.87689,397.662,34.438,45.067,45.000,0.00,0.09,-272.71,-272.77,10,491,-5,23.0,3.1,-24.1,23.1,3.0,-24.2,5.73,1.64,-15.3,28.5
2015-04-04 00:15:00,3.0,1.87692,0.00051,397.648,0.026,0.0010,0.0021,140.001,45.000,31009.66155,1.87693,397.653,34.439,45.067,44.999,0.00,0.09,-272.72,-272.78,9,491,-5,23.0,3.1,-24.2,23.1,3.1,-24.1,5.73,1.79,-15.3,28.4
2015-04-04 00:16:00,3.0,1.87685,0.00043,397.646,0.026,0.0007,0.0019,140.002,45.000,31009.58630,1.87680,397.650,34.475,45.066,44.999,0.00,0.09,-272.72,-272.78,8,491,-5,23.1,3.1,-24.1,23.1,3.0,-24.3,5.73,1.68,-15.3,28.5
2015-04-04 00:17:00,3.0,1.87681,0.00034,397.645,0.034,0.0010,0.0017,140.000,45.000,31011.41706,1.87687,397.649,34.480,45.066,44.999,0.00,0.09,-272.71,-272.77,10,492,-5,23.1,3.1,-24.0,23.2,3.0,-24.2,5.73,1.53,-15.3,28.5
2015-04-04 00:18:00,3.0,1.87685,0.00035,397.652,0.029,-0.0003,0.0021,140.005,45.000,31013.15381,1.87685,397.651,34.478,45.066,44.999,0.00,0.09,-272.72,-272.78,9,492,-5,23.1,3.1,-23.9,23.2,3.1,-24.1,5.73,1.67,-15.3,28.6
2015-04-04 00:19:00,3.0,1.87699,0.00033,397.650,0.029,0.0002,0.0020,139.999,45.000,31011.29279,1.87699,397.650,34.495,45.066,44.999,0.00,0.09,-272.73,-272.78,8,492,-5,23.2,3.1,-23.9,23.3,3.1,-24.1,5.73,1.80,-15.3,28.6
2015-04-04 00:20:00,0.0,1.91679,0.01480,403.889,2.182,0.0883,0.0320,140.125,45.000,32271.71998,1.91674,404.178,34.491,45.066,44.999,0.00,0.09,-272.71,-272.77,5,688,-5,23.2,3.0,-24.3,23.3,3.1,-23.8,5.73,1.70,-15.2,28.6
2015-04-04 00:21:00,0.0,1.92150,0.00039,404.567,0.040,0.1046,0.0017,140.002,45.000,32341.78531,1.92353,405.079,34.448,45.066,44.999,0.00,0.09,-272.72,-272.77,3,688,-5,23.2,3.0,-24.2,23.3,3.1,-23.9,5.73,2.03,-15.2,28.6
2015-04-04 00:22:00,0.0,1.92126,0.00035,404.530,0.032,0.1060,0.0021,140.003,44.999,32367.71908,1.92325,405.046,34.418,45.066,44.999,0.00,0.09,-272.72,-272.78,4,688,-5,23.1,3.1,-24.2,23.3,3.1,-23.8,5.73,1.63,-15.2,28.6
2015-04-04 00:23:00,0.0,1.92123,0.00038,404.518,0.030,0.1092,0.0021,140.004,44.999,32386.96740,1.92330,405.050,34.352,45.066,44.998,0.00,0.09,-272.72,-272.77,5,688,-5,23.1,3.2,-23.8,23.3,3.1,-23.9,5.73,1.95,-15.2,28.6
2015-04-04 00:24:00,0.0,1.92112,0.00034,404.507,0.032,0.1113,0.0023,140.000,44.999,32399.85871,1.92319,405.052,34.289,45.066,44.999,0.00,0.09,-272.71,-272.77,3,688,-5,23.1,3.2,-23.7,23.3,3.1,-23.9,5.73,1.81,-15.2,28.5
2015-04-04 00:25:00,0.0,1.92120,0.00027,404.540,0.036,0.1052,0.0017,140.000,44.999,32412.85568,1.92322,405.053,34.195,45.066,44.999,0.00,0.09,-272.72,-272.77,4,689,-5,23.0,3.0,-24.3,23.2,3.1,-23.9,5.73,1.72,-15.2,28.5
2015-04-04 00:26:00,0.0,1.92086,0.00032,404.547,0.036,0.1031,0.0018,139.997,44.999,32422.19205,1.92282,405.048,34.129,45.066,44.999,0.00,0.09,-272.72,-272.78,4,689,-5,23.0,3.0,-24.5,23.2,3.1,-24.0,5.73,2.01,-15.2,28.4
2015-04-04 00:27:00,0.0,1.92139,0.00028,404.557,0.017,0.1025,0.0025,139.999,44.999,32427.54560,1.92331,405.058,34.038,45.066,44.999,0.00,0.09,-272.71,-272.77,3,689,-5,22.9,3.0,-24.4,23.2,3.1,-23.9,5.73,1.63,-15.3,28.4
2015-04-04 00:28:00,0.0,1.92113,0.00031,404.549,0.030,0.1026,0.0017,139.999,44.999,32433.64056,1.92307,405.048,33.957,45.067,45.000,0.00,0.09,-272.72,-272.77,4,689,-5,22.9,2.9,-24.8,23.1,3.1,-23.9,5.73,1.94,-15.3,28.3
2015-04-04 00:29:00,0.0,1.92138,0.00036,404.537,0.039,0.1026,0.0014,140.000,44.999,32437.36886,1.92332,405.039,33.900,45.067,44.999,0.00,0.09,-272.71,-272.78,4,688,-5,22.8,2.9,-24.8,23.0,3.2,-23.9,5.73,1.84,-15.3,28.3
2015-04-04 00:30:00,0.0,1.92148,0.00037,404.545,0.032,0.1023,0.0013,140.000,44.999,32439.50565,1.92344,405.042,33.833,45.067,45.000,0.00,0.09,-272.72,-272.77,3,689,-5,22.8,3.0,-24.7,23.0,3.2,-23.8,5.73,1.69,-15.3,28.2
2015-04-04 00:31:00,0.0,1.92136,0.00027,404.544,0.019,0.1026,0.0018,140.004,44.999,32445.57332,1.92329,405.043,33.785,45.067,45.000,0.00,0.09,-272.72,-272.77,5,689,-5,22.8,3.0,-24.7,23.0,3.2,-23.9,5.73,2.03,-15.2,28.2
2015-04-04 00:32:00,0.0,1.92127,0.00024,404.528,0.023,0.1031,0.0016,140.000,44.999,32447.56938,1.92325,405.031,33.742,45.067,45.000,0.00,0.09,-272.72,-272.78,4,689,-5,22.7,3.0,-24.8,23.0,3.2,-23.9,5.73,1.63,-15.3,28.2
2015-04-04 00:33:00,0.0,1.92118,0.00041,404.535,0.028,0.1019,0.0010,139.999,44.999,32448.68104,1.92310,405.031,33.677,45.067,45.000,0.00,0.09,-272.72,-272.78,3,689,-5,22.7,3.0,-24.7,22.9,3.1,-24.0,5.73,1.94,-15.3,28.2
2015-04-04 00:34:00,0.0,1.92139,0.00042,404.561,0.028,0.1021,0.0010,140.001,44.999,32449.71278,1.92330,405.058,33.636,45.067,45.000,0.00,0.09,-272.71,-272.77,5,689,-5,22.6,3.0,-24.7,22.9,3.2,-23.8,5.73,1.85,-15.3,28.1
2015-04-04 00:35:00,0.0,1.92144,0.00027,404.534,0.035,0.1023,0.0018,140.001,44.999,32450.24193,1.92340,405.033,33.582,45.067,45.000,0.00,0.09,-272.72,-272.77,5,689,-5,22.5,3.0,-24.8,22.8,3.2,-23.9,5.73,1.68,-15.3,28.1
2015-04-04 00:36:00,0.0,1.92106,0.00036,404.535,0.030,0.1015,0.0016,140.003,44.999,32452.38980,1.92298,405.030,33.530,45.067,44.999,0.00,0.09,-272.72,-272.78,4,689,-5,22.5,3.0,-24.9,22.8,3.2,-23.9,5.73,2.03,-15.3,28.0
2015-04-04 00:37:00,0.0,1.92134,0.00038,404.553,0.033,0.1016,0.0017,140.000,44.999,32452.39920,1.92324,405.049,33.467,45.067,44.999,0.00,0.09,-272.71,-272.77,5,689,-5,22.4,3.0,-24.9,22.7,3.2,-24.0,5.73,1.67,-15.3,28.0
2015-04-04 00:38:00,0.0,1.92122,0.00031,404.557,0.026,0.1023,0.0022,139.998,44.999,32451.51825,1.92317,405.055,33.413,45.067,45.000,0.00,0.09,-272.72,-272.77,5,689,-5,22.3,3.0,-24.9,22.7,3.2,-24.2,5.73,1.86,-15.3,27.9
2015-04-04 00:39:00,0.0,1.92155,0.00042,404.568,0.035,0.1021,0.0018,140.003,44.999,32451.11119,1.92347,405.065,33.328,45.067,44.999,0.00,0.09,-272.72,-272.78,4,690,-5,22.3,3.0,-24.8,22.6,3.1,-24.2,5.73,1.96,-15.3,27.8
2015-04-04 00:40:00,0.0,1.92177,0.00048,404.552,0.026,0.1031,0.0014,140.001,44.999,32450.82784,1.92373,405.055,33.281,45.067,45.000,0.00,0.09,-272.71,-272.78,5,690,-5,22.3,3.0,-24.8,22.6,3.2,-24.2,5.73,1.63,-15.3,27.8
2015-04-04 00:41:00,0.0,1.92144,0.00024,404.569,0.032,0.1027,0.0022,140.000,44.999,32449.82304,1.92337,405.070,33.232,45.067,45.000,0.00,0.09,-272.72,-272.77,5,690,-5,22.3,3.1,-24.7,22.6,3.1,-24.3,5.73,1.95,-15.3,27.6
2015-04-04 00:42:00,0.0,1.92148,0.00040,404.566,0.035,0.1035,0.0018,140.001,44.999,32450.06826,1.92343,405.070,33.176,45.068,45.000,0.00,0.09,-272.72,-272.78,4,690,-5,22.3,3.1,-24.7,22.5,3.2,-24.3,5.73,1.88,-15.4,27.7
2015-04-04 00:43:00,0.0,1.92148,0.00025,404.543,0.033,0.1037,0.0014,139.999,44.999,32449.08385,1.92348,405.048,33.141,45.067,45.000,0.00,0.09,-272.72,-272.78,4,690,-4,22.2,3.1,-24.7,22.5,3.2,-24.3,5.73,1.65,-15.4,27.6
2015-04-04 00:44:00,0.0,1.92131,0.00032,404.569,0.028,0.1046,0.0021,139.998,44.999,32447.44587,1.92326,405.077,33.127,45.067,45.000,0.00,0.09,-272.72,-272.77,6,690,-4,22.1,3.1,-24.6,22.4,3.2,-24.3,5.73,2.03,-15.4,27.5
2015-04-04 00:45:00,0.0,1.92147,0.00029,404.588,0.032,0.1056,0.0010,140.001,44.999,32445.57329,1.92350,405.103,33.106,45.067,44.999,0.00,0.09,-272.72,-272.77,4,690,-4,22.1,3.2,-24.5,22.4,3.2,-24.4,5.73,1.72,-15.4,27.4
2015-04-04 00:46:00,0.0,1.92154,0.00028,404.565,0.040,0.1059,0.0019,139.996,44.999,32444.64414,1.92353,405.080,33.113,45.067,44.999,0.00,0.09,-272.72,-272.78,5,690,-4,22.1,3.2,-24.5,22.3,3.2,-24.4,5.73,1.82,-15.4,27.4
2015-04-04 00:47:00,0.0,1.92121,0.00025,404.566,0.042,0.1064,0.0016,139.998,45.000,32445.71594,1.92325,405.086,33.127,45.067,45.000,0.00,0.09,-272.71,-272.77,6,690,-4,22.1,3.2,-24.4,22.4,3.2,-24.3,5.73,1.93,-15.4,27.4
2015-04-04 00:48:00,0.0,1.92102,0.00035,404.560,0.029,0.1063,0.0013,140.000,45.000,32448.32079,1.92303,405.077,33.174,45.068,45.000,0.00,0.09,-272.72,-272.77,4,689,-4,22.1,3.2,-24.3,22.4,3.1,-24.3,5.73,1.68,-15.4,27.4
2015-04-04 00:49:00,0.0,1.92115,0.00036,404.579,0.024,0.1063,0.0020,139.998,45.001,32444.53831,1.92316,405.096,33.225,45.068,45.000,0.00,0.09,-272.73,-272.78,5,689,-4,22.2,3.2,-24.3,22.4,3.1,-24.3,5.73,2.02,-15.4,27.4
2015-04-04 00:50:00,0.0,1.92137,0.00039,404.604,0.027,0.1076,0.0014,140.001,45.001,32445.14112,1.92341,405.129,33.302,45.069,45.001,0.00,0.09,-272.72,-272.78,5,689,-4,22.2,3.2,-24.3,22.4,3.2,-24.3,5.73,1.64,-15.5,27.5
2015-04-04 00:51:00,0.0,1.92116,0.00030,404.588,0.027,0.1078,0.0015,140.001,45.001,32445.69005,1.92319,405.114,33.410,45.069,45.001,0.00,0.09,-272.71,-272.77,4,689,-4,22.2,3.2,-24.1,22.5,3.2,-24.3,5.73,2.03,-15.5,27.5
2015-04-04 00:52:00,0.0,1.92118,0.00037,404.577,0.040,0.1082,0.0017,140.000,45.002,32449.32359,1.92321,405.105,33.529,45.069,45.001,0.00,0.09,-272.72,-272.77,6,688,-4,22.3,3.2,-24.2,22.5,3.2,-24.3,5.73,1.64,-15.5,27.5
2015-04-04 00:53:00,0.0,1.92112,0.00035,404.575,0.025,0.1074,0.0014,139.999,45.002,32453.99583,1.92316,405.098,33.662,45.069,45.001,0.00,0.09,-272.72,-272.78,4,688,-4,22.3,3.2,-24.2,22.5,3.2,-24.3,5.73,2.03,-15.5,27.6
2015-04-04 00:54:00,0.0,1.92115,0.00020,404.568,0.042,0.1073,0.0014,140.000,45.002,32457.17996,1.92319,405.092,33.819,45.069,45.001,0.00,0.09,-272.71,-272.77,6,688,-4,22.4,3.2,-24.2,22.5,3.2,-24.2,5.73,1.65,-15.5,27.6
2015-04-04 00:55:00,0.0,1.92089,0.00029,404.589,0.035,0.1086,0.0016,139.999,45.003,32463.95340,1.92294,405.119,33.986,45.069,45.001,0.00,0.09,-272.72,-272.78,4,687,-4,22.4,3.2,-24.1,22.6,3.1,-24.2,5.73,2.02,-15.5,27.6
2015-04-04 00:56:00,0.0,1.92085,0.00035,404.566,0.023,0.1081,0.0018,140.001,45.002,32470.45156,1.92291,405.092,34.131,45.068,45.001,0.00,0.09,-272.72,-272.78,6,687,-4,22.4,3.2,-24.0,22.6,3.2,-24.2,5.73,1.67,-15.5,27.7
2015-04-04 00:57:00,0.0,1.92064,0.00026,404.569,0.031,0.1090,0.0018,139.998,45.002,32476.14906,1.92272,405.100,34.253,45.068,45.000,0.00,0.09,-272.72,-272.77,4,687,-4,22.5,3.3,-23.9,22.6,3.2,-24.2,5.73,1.98,-15.5,27.7
2015-04-04 00:58:00,0.0,1.92086,0.00040,404.555,0.029,0.1098,0.0016,139.998,45.003,32482.25540,1.92293,405.089,34.385,45.068,45.000,0.00,0.09,-272.72,-272.77,6,687,-4,22.5,3.3,-23.9,22.6,3.2,-24.2,5.73,1.74,-15.5,27.8
2015-04-04 00:59:00,0.0,1.92074,0.00042,404.567,0.029,0.1097,0.0019,140.001,45.002,32487.08445,1.92281,405.102,34.497,45.068,45.000,0.00,0.09,-272.72,-272.78,4,687,-4,22.5,3.3,-23.9,22.7,3.2,-24.1,5.73,1.89,-15.5,27.8
2015-04-04 01:00:00,0.0,1.92068,0.00050,404.569,0.033,0.1104,0.0015,139.999,45.002,32490.20456,1.92275,405.107,34.623,45.068,45.000,0.00,0.09,-272.72,-272.77,5,687,-4,22.6,3.3,-23.7,22.7,3.2,-24.0,5.73,1.84,-15.5,27.8
2015-04-04 01:01:00,0.0,1.92069,0.00036,404.546,0.031,0.1103,0.0017,139.999,45.002,32497.16236,1.92281,405.085,34.734,45.068,45.001,0.00,0.09,-272.71,-272.77,4,687,-4,22.6,3.3,-23.8,22.7,3.2,-24.1,5.73,1.77,-15.5,27.9
2015-04-04 01:02:00,0.0,1.92057,0.00035,404.538,0.025,0.1119,0.0012,140.004,45.002,32502.21614,1.92273,405.083,34.847,45.068,45.001,0.00,0.09,-272.73,-272.77,5,686,-4,22.6,3.3,-23.7,22.7,3.2,-24.0,5.73,1.95,-15.5,27.9
2015-04-04 01:03:00,0.0,1.92048,0.00040,404.542,0.031,0.1126,0.0023,139.999,45.002,32504.35382,1.92260,405.090,34.943,45.068,45.001,0.00,0.09,-272.72,-272.78,4,686,-4,22.7,3.3,-23.7,22.8,3.2,-24.0,5.73,1.68,-15.5,28.0
2015-04-04 01:04:00,0.0,1.92048,0.00038,404.541,0.030,0.1123,0.0014,140.001,45.002,32507.71308,1.92262,405.088,35.038,45.068,45.001,0.00,0.09,-272.72,-272.77,5,686,-4,22.7,3.3,-23.7,22.8,3.2,-24.0,5.73,2.02,-15.4,28.0
2015-04-04 01:05:00,0.0,1.92054,0.00033,404.534,0.028,0.1119,0.0019,139.999,45.001,32509.93849,1.92261,405.080,35.127,45.068,45.001,0.00,0.09,-272.71,-272.77,4,686,-4,22.7,3.3,-23.7,22.8,3.2,-23.9,5.73,1.65,-15.4,28.1
2015-04-04 01:06:00,0.0,1.92044,0.00036,404.524,0.033,0.1123,0.0020,139.999,45.001,32510.58974,1.92256,405.072,35.192,45.068,45.001,0.00,0.09,-272.72,-272.78,5,686,-4,22.8,3.3,-23.6,22.8,3.2,-23.9,5.73,2.00,-15.4,28.1
2015-04-04 01:07:00,0.0,1.92053,0.00031,404.557,0.036,0.1121,0.0018,139.999,45.001,32512.23650,1.92266,405.103,35.248,45.068,45.001,0.00,0.09,-272.71,-272.77,4,686,-4,22.8,3.3,-23.6,22.9,3.2,-23.8,5.73,1.69,-15.4,28.2
2015-04-04 01:08:00,0.0,1.92059,0.00036,404.532,0.029,0.1121,0.0020,140.000,45.001,32516.45590,1.92273,405.079,35.275,45.068,45.000,0.00,0.09,-272.71,-272.78,5,687,-4,22.8,3.3,-23.7,22.9,3.2,-23.9,5.73,1.95,-15.4,28.2
2015-04-04 01:09:00,0.0,1.92064,0.00028,404.533,0.028,0.1117,0.0019,140.000,45.000,32515.61158,1.92276,405.077,35.306,45.067,45.000,0.00,0.09,-272.72,-272.78,4,687,-4,22.8,3.3,-23.7,22.9,3.2,-23.9,5.73,1.71,-15.4,28.2
2015-04-04 01:10:00,0.0,1.92051,0.00034,404.532,0.039,0.1118,0.0013,139.999,45.000,32515.49586,1.92260,405.078,35.310,45.067,44.999,0.00,0.09,-272.72,-272.78,4,687,-4,22.7,3.3,-23.7,22.9,3.2,-23.8,5.73,1.96,-15.4,28.2
2015-04-04 01:11:00,0.0,1.92074,0.00041,404.538,0.029,0.1116,0.0011,140.000,44.999,32513.09752,1.92288,405.082,35.290,45.066,44.999,0.00,0.09,-272.71,-272.78,5,687,-4,22.7,3.3,-23.8,22.9,3.2,-23.8,5.73,1.67,-15.3,28.2
2015-04-04 01:12:00,0.0,1.92079,0.00036,404.531,0.029,0.1116,0.0012,139.998,44.999,32510.33159,1.92290,405.074,35.221,45.066,44.998,0.00,0.09,-272.72,-272.78,3,687,-4,22.6,3.3,-23.7,22.8,3.2,-23.8,5.73,2.00,-15.3,28.2
2015-04-04 01:13:00,0.0,1.92057,0.00042,404.518,0.028,0.1120,0.0017,140.002,44.999,32510.33678,1.92271,405.064,35.133,45.065,44.998,0.00,0.09,-272.72,-272.78,5,688,-4,22.6,3.3,-23.7,22.7,3.2,-23.8,5.73,1.63,-15.3,28.1
2015-04-04 01:14:00,0.0,1.92064,0.00035,404.522,0.032,0.1132,0.0013,140.000,44.999,32505.45074,1.92279,405.075,35.023,45.066,44.998,0.00,0.09,-272.73,-272.77,4,688,-4,22.5,3.3,-23.7,22.7,3.2,-23.9,5.73,2.02,-15.3,28.1
2015-04-04 01:15:00,0.0,1.92076,0.00046,404.527,0.031,0.1145,0.0017,139.998,44.999,32500.75436,1.92292,405.084,34.906,45.066,44.999,0.00,0.09,-272.71,-272.77,4,688,-4,22.4,3.4,-23.6,22.7,3.2,-23.9,5.73,1.67,-15.3,28.0
2015-04-04 01:16:00,0.0,1.92073,0.00039,404.535,0.038,0.1157,0.0017,140.000,44.998,32497.22519,1.92293,405.099,34.776,45.066,44.999,0.00,0.09,-272.72,-272.78,6,688,-4,22.4,3.4,-23.5,22.6,3.3,-23.8,5.73,1.88,-15.3,28.0
2015-04-04 01:17:00,0.0,1.92063,0.00046,404.522,0.029,0.1161,0.0032,139.997,44.998,32493.78546,1.92281,405.087,34.652,45.067,45.000,0.00,0.09,-272.71,-272.77,4,689,-4,22.4,3.4,-23.4,22.6,3.3,-23.8,5.73,1.90,-15.3,28.0
2015-04-04 01:18:00,0.0,1.92063,0.00040,404.517,0.030,0.1162,0.0018,139.998,44.998,32490.17210,1.92285,405.083,34.519,45.067,45.000,0.00,0.09,-272.71,-272.77,4,689,-4,22.4,3.4,-23.4,22.6,3.3,-23.8,5.73,1.65,-15.3,27.9
2015-04-04 01:19:00,0.0,1.92061,0.00043,404.533,0.027,0.1179,0.0014,139.999,44.998,32487.44012,1.92284,405.108,34.422,45.067,45.001,0.00,0.09,-272.72,-272.78,6,689,-4,22.3,3.4,-23.4,22.6,3.2,-23.9,5.73,2.03,-15.3,27.9
2015-04-04 01:20:00,0.0,1.92068,0.00025,404.532,0.034,0.1186,0.0013,139.999,44.998,32484.92635,1.92291,405.109,34.307,45.067,45.000,0.00,0.09,-272.71,-272.78,4,689,-4,22.3,3.5,-23.3,22.5,3.3,-23.8,5.73,1.68,-15.3,27.8
2015-04-04 01:21:00,0.0,1.92053,0.00032,404.489,0.024,0.1181,0.0013,139.998,44.999,32481.43102,1.92275,405.064,34.204,45.067,45.000,0.00,0.09,-272.72,-272.77,4,689,-4,22.3,3.5,-23.4,22.5,3.3,-23.9,5.73,1.87,-15.3,27.8
2015-04-04 01:22:00,0.0,1.92047,0.00040,404.496,0.039,0.1175,0.0016,140.004,44.999,32479.38934,1.92272,405.068,34.126,45.067,45.000,0.00,0.09,-272.72,-272.78,6,689,-4,22.3,3.5,-23.3,22.5,3.3,-23.8,5.73,1.91,-15.3,27.8
2015-04-04 01:23:00,0.0,1.92065,0.00036,404.514,0.039,0.1191,0.0016,140.000,44.998,32472.09439,1.92290,405.094,34.025,45.067,45.000,0.00,0.09,-272.71,-272.78,4,690,-4,22.2,3.5,-23.3,22.4,3.3,-23.8,5.73,1.66,-15.3,27.6
2015-04-04 01:24:00,0.0,1.92080,0.00036,404.526,0.035,0.1184,0.0017,140.001,44.999,32469.63284,1.92305,405.105,33.951,45.067,45.000,0.00,0.09,-272.72,-272.78,5,690,-4,22.1,3.5,-23.4,22.4,3.3,-23.9,5.73,2.03,-15.3,27.7
2015-04-04 01:25:00,0.0,1.92067,0.00030,404.517,0.033,0.1179,0.0014,140.002,44.999,32467.72750,1.92289,405.091,33.846,45.067,44.999,0.00,0.09,-272.72,-272.77,6,689,-4,22.1,3.5,-23.4,22.3,3.3,-23.9,5.73,1.64,-15.4,27.6
2015-04-04 01:26:00,0.0,1.92046,0.00037,404.529,0.042,0.1175,0.0022,139.998,44.999,32463.55144,1.92267,405.102,33.767,45.067,44.999,0.00,0.09,-272.73,-272.78,4,690,-4,22.0,3.5,-23.4,22.3,3.3,-23.8,5.73,1.95,-15.4,27.5
2015-04-04 01:27:00,0.0,1.92052,0.00039,404.525,0.031,0.1180,0.0013,139.997,44.999,32461.19007,1.92275,405.098,33.701,45.067,44.999,0.00,0.09,-272.72,-272.78,5,690,-4,22.0,3.5,-23.3,22.3,3.3,-23.8,5.73,1.78,-15.4,27.4
2015-04-04 01:28:00,0.0,1.92072,0.00039,404.532,0.033,0.1194,0.0015,139.997,44.999,32459.86470,1.92298,405.115,33.638,45.067,45.000,0.00,0.09,-272.72,-272.77,5,689,-4,22.0,3.6,-23.3,22.2,3.3,-23.8,5.73,1.81,-15.4,27.3
2015-04-04 01:29:00,0.0,1.92052,0.00041,404.521,0.033,0.1191,0.0017,140.000,44.999,32460.92369,1.92279,405.102,33.619,45.067,45.000,0.00,0.09,-272.72,-272.77,4,690,-4,22.0,3.6,-23.2,22.2,3.3,-23.8,5.73,1.90,-15.4,27.4
2015-04-04 01:30:00,0.0,1.92035,0.00043,404.506,0.033,0.1192,0.0015,140.000,44.999,32462.63982,1.92259,405.086,33.570,45.067,45.000,0.00,0.09,-272.72,-272.77,6,689,-4,22.0,3.6,-23.2,22.2,3.3,-23.8,5.73,1.73,-15.4,27.3
2015-04-04 01:31:00,0.0,1.92041,0.00035,404.497,0.032,0.1202,0.0013,139.998,44.999,32463.09290,1.92270,405.082,33.576,45.067,45.000,0.00,0.09,-272.72,-272.77,4,690,-4,22.0,3.6,-23.2,22.2,3.4,-23.7,5.73,1.96,-15.4,27.3
2015-04-04 01:32:00,0.0,1.92050,0.00040,404.514,0.029,0.1212,0.0017,139.999,45.000,32462.18216,1.92279,405.106,33.615,45.067,45.000,0.00,0.09,-272.71,-272.77,6,689,-4,22.0,3.6,-23.1,22.2,3.4,-23.7,5.73,1.67,-15.4,27.3
2015-04-04 01:33:00,0.0,1.92035,0.00034,404.515,0.040,0.1211,0.0013,139.999,45.000,32461.35916,1.92265,405.106,33.625,45.067,44.999,0.00,0.09,-272.72,-272.78,5,689,-4,22.0,3.6,-23.0,22.2,3.4,-23.7,5.73,2.01,-15.4,27.3
2015-04-04 01:34:00,0.0,1.92055,0.00040,404.502,0.029,0.1215,0.0013,140.000,45.000,32460.40228,1.92285,405.096,33.634,45.067,44.999,0.00,0.09,-272.72,-272.78,5,689,-4,22.0,3.6,-23.0,22.3,3.4,-23.7,5.73,1.64,-15.4,27.3
2015-04-04 01:35:00,0.0,1.92044,0.00042,404.495,0.035,0.1226,0.0016,139.998,45.000,32458.49909,1.92278,405.091,33.643,45.067,45.000,0.00,0.09,-272.72,-272.78,6,689,-4,22.0,3.6,-23.0,22.2,3.4,-23.6,5.73,2.03,-15.4,27.3
2015-04-04 01:36:00,0.0,1.92058,0.00036,404.526,0.032,0.1212,0.0014,139.997,45.000,32459.56771,1.92285,405.116,33.625,45.067,45.000,0.00,0.09,-272.71,-272.78,4,689,-4,22.0,3.6,-23.0,22.2,3.4,-23.6,5.73,1.63,-15.4,27.4
2015-04-04 01:37:00,0.0,1.92062,0.00020,404.503,0.027,0.1213,0.0020,140.002,45.000,32460.58903,1.92292,405.094,33.617,45.067,44.999,0.00,0.09,-272.72,-272.78,6,689,-4,22.0,3.6,-23.0,22.2,3.4,-23.5,5.73,2.03,-15.4,27.3
2015-04-04 01:38:00,0.0,1.92058,0.00038,404.519,0.024,0.1218,0.0017,140.001,45.000,32459.36856,1.92291,405.113,33.602,45.067,44.999,0.00,0.09,-272.72,-272.78,5,689,-4,22.0,3.6,-23.0,22.2,3.4,-23.5,5.73,1.66,-15.4,27.3
2015-04-04 01:39:00,0.0,1.92055,0.00046,404.503,0.034,0.1210,0.0015,140.001,45.000,32458.81695,1.92281,405.093,33.581,45.067,44.999,0.00,0.09,-272.72,-272.77,5,689,-4,21.9,3.6,-23.1,22.2,3.4,-23.5,5.73,1.97,-15.4,27.3
2015-04-04 01:40:00,0.0,1.92056,0.00036,404.520,0.032,0.1196,0.0017,140.002,45.000,32457.75727,1.92282,405.102,33.565,45.067,44.999,0.00,0.09,-272.72,-272.79,6,689,-4,21.9,3.6,-23.1,22.2,3.4,-23.5,5.73,1.74,-15.4,27.3
2015-04-04 01:41:00,0.0,1.92053,0.00035,404.516,0.034,0.1205,0.0020,139.999,45.000,32457.57474,1.92282,405.106,33.531,45.067,44.999,0.00,0.09,-272.72,-272.77,4,689,-4,21.9,3.6,-23.2,22.1,3.5,-23.5,5.73,1.85,-15.4,27.3
2015-04-04 01:42:00,0.0,1.92042,0.00036,404.511,0.033,0.1205,0.0018,140.001,45.000,32455.68846,1.92269,405.097,33.501,45.067,45.000,0.00,0.09,-272.72,-272.77,6,689,-4,21.8,3.6,-23.1,22.1,3.5,-23.5,5.73,1.88,-15.4,27.3
2015-04-04 01:43:00,0.0,1.92076,0.00037,404.505,0.027,0.1210,0.0017,139.999,45.000,32454.83173,1.92306,405.094,33.496,45.067,45.000,0.00,0.09,-272.72,-272.78,5,689,-4,21.8,3.7,-23.1,22.1,3.5,-23.5,5.73,1.71,-15.4,27.3
2015-04-04 01:44:00,0.0,1.92056,0.00042,404.527,0.032,0.1202,0.0021,140.000,44.999,32454.86416,1.92285,405.114,33.444,45.067,45.000,0.00,0.09,-272.72,-272.78,5,689,-4,21.7,3.6,-23.2,22.0,3.5,-23.5,5.73,2.01,-15.4,27.3
2015-04-04 01:45:00,0.0,1.92051,0.00037,404.513,0.027,0.1202,0.0014,139.999,44.999,32452.89575,1.92276,405.098,33.434,45.067,45.000,0.00,0.09,-272.71,-272.78,6,690,-4,21.7,3.7,-23.1,22.0,3.5,-23.5,5.73,1.63,-15.4,27.3
2015-04-04 01:46:00,0.0,1.92062,0.00033,404.514,0.034,0.1212,0.0018,140.000,44.999,32452.69792,1.92292,405.105,33.379,45.067,44.999,0.00,0.09,-272.72,-272.78,5,690,-4,21.6,3.7,-23.1,21.9,3.5,-23.4,5.73,2.01,-15.4,27.2